Regional Weather Roundup
Issued by NWS

Home | Current Version | Previous Version | Graphics & Text | Print | Product List | Glossary Off
Versions: 1 2 3 4 5 6 7 8 9 10 11 12 13 14 15 16 17 18 19 20 21 22 23 24 25 26 27 28 29 30 31 32 33 34 35 36 37 38 39 40 41 42 43 44 45 46 47 48 49 50

262
ASUS45 KBOI 260910
RWRID

IDAHO REGIONAL WEATHER ROUNDUP
NATIONAL WEATHER SERVICE BOISE ID
300 AM MDT THU MAY 26 2016

NOTE: "FAIR" INDICATES FEW OR NO CLOUDS BELOW 12000 FEET
WITH NO SIGNIFICANT WEATHER AND/OR OBSTRUCTIONS TO VISIBILITY

IDZ012-014-261000-
SOUTHWEST IDAHO


CITY           SKY/WX    TMP DP  RH WIND       PRES   REMARKS
BOISE          CLEAR     52  41  66 S5        30.01R
CALDWELL       CLEAR     52  43  71 W9        30.01S
MOUNTAIN HOME  MOCLDY    58  44  59 W10       30.00S
$$

IDZ016-017-261000-
SOUTHCENTRAL IDAHO


CITY           SKY/WX    TMP DP  RH WIND       PRES   REMARKS
BURLEY         CLEAR     46  39  76 SW9       30.02F
JEROME         CLEAR     49  40  71 SE5       30.03F
TWIN FALLS     CLEAR     49  38  65 S14       30.03F
$$

IDZ019>023-261000-
SOUTHEAST IDAHO


CITY           SKY/WX    TMP DP  RH WIND       PRES   REMARKS
IDAHO FALLS    CLOUDY    39  37  92 CALM      30.05S
POCATELLO      CLEAR     43  39  86 E5        30.05S
REXBURG        PTCLDY    41  38  89 CALM      30.05F
$$

IDZ006-010-011-018-031-032-261000-
CENTRAL IDAHO MOUNTAINS


CITY           SKY/WX    TMP DP  RH WIND       PRES   REMARKS
MCCALL         CLEAR     44  37  76 N5        30.07S
HAILEY         CLEAR     41  36  81 NW10G17   30.09S
STANLEY          N/A     30  27  88 CALM      30.13R
SALMON         CLEAR     41  34  75 CALM      30.04R
CHALLIS        CLEAR     42  34  73 NW3       30.07S
$$

IDZ002-004-006-007-026-261000-
NORTHERN IDAHO


CITY           SKY/WX    TMP DP  RH WIND       PRES   REMARKS
LEWISTON       CLEAR     57  46  66 CALM      30.02R
LOWELL           N/A     50  48  93 CALM      30.08R
COEUR D`ALENE  PTCLDY    57  45  62 S5        29.98S
MULLAN PASS    MOCLDY    42  40  92 NW5       30.08S
$$




USA.gov is the U.S. government's official web portal to all federal, state and local government web resources and services.